Weather History for Frederick, MD

Change the Weather History Date:

Tuesday, March 25, 2014

  Actual Average (KHGR) Record (KHGR)
Temperature  
Mean Temperature 28 °F -  
Max Temperature 33 °F 53 °F 72 °F (2003)
Min Temperature 24 °F 35 °F 25 °F (2008)
Degree Days  
Heating Degree Days 36    
Moisture  
Dew Point 26 °F    
Average Humidity 90    
Maximum Humidity 100    
Minimum Humidity 74    
Precipitation  
Precipitation 0.00 in - - ()
Sea Level Pressure  
Sea Level Pressure 30.05 in    
Wind  
Wind Speed 1 mph (NNE)    
Max Wind Speed 8 mph    
Max Gust Speed -    
Visibility 7 miles    
Events Fog , Rain , Snow    
Averages and records for this station are not official NWS values.
T = Trace of Precipitation, MM = Missing Value Source: NWS Daily Summary

Daily Weather History Graph

Daily Weather History Graph

Search for Another Location

Airport:

Trip Planner

Search our weather history database for the weather conditions in past years. The results will help you decide how hot, cold, wet, or windy it might be!

Date:

Astronomy

Mar. 25, 2014 Rise Set
Actual Time 7:04 AM EDT 7:26 PM EDT
Civil Twilight 6:38 AM EDT 7:53 PM EDT
Nautical Twilight 6:06 AM EDT 8:24 PM EDT
Astronomical Twilight 5:34 AM EDT 8:57 PM EDT
Moon 3:23 AM EDT (3/25) 1:56 PM EDT (3/25)
Length of Visible Light 13h 15m
Length of Day
12h 21m
Waning Crescent, 32% of the Moon is Illuminated
Mar 25
Waning Crescent
Mar 30
New
Apr 7
First Quarter
Apr 15
Full
Apr 22
Last Quarter

Hourly Weather History & Observations

Time (EDT) Temp. Windchill Dew Point Humidity Pressure Visibility Wind Dir Wind Speed Gust Speed Precip Events Conditions
12:10 AM 26.6 °F - 21.2 °F 80% 30.18 in 10.0 mi Calm Calm - N/A   Clear
12:30 AM 26.6 °F - 23.0 °F 86% 30.18 in 10.0 mi Calm Calm - N/A   Clear
12:50 AM 26.6 °F - 21.2 °F 80% 30.17 in 10.0 mi Calm Calm - N/A   Clear
1:10 AM 26.6 °F - 19.4 °F 74% 30.16 in 10.0 mi Calm Calm - N/A   Clear
1:30 AM 26.6 °F - 21.2 °F 80% 30.16 in 10.0 mi Calm Calm - N/A   Clear
1:50 AM 26.6 °F - 19.4 °F 74% 30.15 in 10.0 mi Calm Calm - N/A   Clear
2:10 AM 26.6 °F - 21.2 °F 80% 30.15 in 10.0 mi Calm Calm - N/A   Clear
2:30 AM 26.6 °F - 19.4 °F 74% 30.15 in 10.0 mi Calm Calm - N/A   Clear
2:50 AM 26.6 °F - 19.4 °F 74% 30.15 in 10.0 mi Calm Calm - N/A   Clear
3:10 AM 24.8 °F - 21.2 °F 86% 30.14 in 10.0 mi Calm Calm - N/A   Clear
3:30 AM 26.6 °F - 21.2 °F 80% 30.13 in 10.0 mi Calm Calm - N/A   Scattered Clouds
3:50 AM 24.8 °F - 21.2 °F 86% 30.12 in 10.0 mi Calm Calm - N/A   Mostly Cloudy
4:10 AM 24.8 °F - 21.2 °F 86% 30.12 in 10.0 mi Calm Calm - N/A   Overcast
4:30 AM 26.6 °F - 21.2 °F 80% 30.11 in 10.0 mi Calm Calm - N/A   Overcast
4:50 AM 24.8 °F - 21.2 °F 86% 30.10 in 10.0 mi Calm Calm - N/A   Overcast
5:10 AM 24.8 °F - 19.4 °F 80% 30.10 in 10.0 mi Calm Calm - N/A   Overcast
5:30 AM 26.6 °F - 21.2 °F 80% 30.10 in 10.0 mi Calm Calm - N/A   Overcast
5:50 AM 26.6 °F - 21.2 °F 80% 30.10 in 10.0 mi Calm Calm - N/A   Overcast
6:10 AM 26.6 °F - 19.4 °F 74% 30.09 in 10.0 mi Calm Calm - N/A   Overcast
6:30 AM 26.6 °F - 21.2 °F 80% 30.10 in 10.0 mi Calm Calm - N/A   Overcast
6:35 AM 26.6 °F - 21.2 °F 80% 30.10 in 10.0 mi Calm Calm - N/A   Overcast
6:50 AM 26.6 °F - 21.2 °F 80% 30.10 in 10.0 mi Calm Calm - N/A   Overcast
7:50 AM 28.4 °F 22.2 °F 23.0 °F 80% 30.09 in 10.0 mi NNE 5.8 mph - N/A   Overcast
8:50 AM 28.4 °F - 23.0 °F 80% 30.09 in 2.0 mi Calm Calm - N/A Snow Light Snow
9:50 AM 28.4 °F - 28.4 °F 100% 30.09 in 0.8 mi Calm Calm - N/A Snow Light Snow
10:50 AM 28.4 °F 24.6 °F 28.4 °F 100% 30.07 in 0.5 mi Variable 3.5 mph - N/A Snow Light Snow
11:52 AM 30.2 °F 24.3 °F 30.2 °F 100% 30.05 in 0.8 mi Variable 5.8 mph - N/A Snow Light Snow
12:47 PM 32.0 °F 27.5 °F 32.0 °F 100% 30.03 in 0.8 mi Variable 4.6 mph - N/A Snow Light Snow
1:50 PM 33.8 °F - 33.8 °F 100% 29.99 in 0.8 mi Calm Calm - N/A Rain Light Rain
2:45 PM 33.8 °F 30.8 °F 33.8 °F 100% 29.96 in 1.0 mi Variable 3.5 mph - N/A Snow Light Snow
3:45 PM 33.8 °F 30.8 °F 33.8 °F 100% 29.93 in 1.0 mi Variable 3.5 mph - N/A Snow Light Snow
4:45 PM 33.8 °F 27.7 °F 33.8 °F 100% 29.91 in 1.5 mi North 6.9 mph - N/A Snow Light Snow
5:45 PM 33.8 °F 27.0 °F 33.8 °F 100% 29.91 in 2.5 mi North 8.1 mph - N/A   Mostly Cloudy
6:55 PM 33.8 °F 28.6 °F 33.8 °F 100% 29.92 in 3.0 mi North 5.8 mph - N/A   Overcast
7:19 PM 33.8 °F 27.7 °F 33.8 °F 100% 29.92 in 7.0 mi North 6.9 mph - N/A   Overcast
7:55 PM 33.8 °F 28.6 °F 33.8 °F 100% 29.92 in 7.0 mi North 5.8 mph - N/A   Mostly Cloudy
8:50 PM 32.0 °F 28.7 °F 32.0 °F 100% 29.93 in 10.0 mi North 3.5 mph - N/A   Scattered Clouds
9:10 PM 32.0 °F - 32.0 °F 100% 29.94 in 10.0 mi Calm Calm - N/A   Mostly Cloudy
9:30 PM 32.0 °F 28.7 °F 32.0 °F 100% 29.94 in 10.0 mi NE 3.5 mph - N/A   Mostly Cloudy
9:50 PM 32.0 °F - 32.0 °F 100% 29.94 in 7.0 mi Calm Calm - N/A   Scattered Clouds
10:10 PM 30.2 °F - 30.2 °F 100% 29.94 in 7.0 mi Calm Calm - N/A   Clear
10:30 PM 30.2 °F - 30.2 °F 100% 29.94 in 7.0 mi Calm Calm - N/A   Clear
10:50 PM 30.2 °F - 30.2 °F 100% 29.94 in 5.0 mi Calm Calm - N/A   Clear
11:10 PM 30.2 °F - 30.2 °F 100% 29.94 in 5.0 mi Calm Calm - N/A   Scattered Clouds
11:30 PM 28.4 °F - 28.4 °F 100% 29.94 in 1.8 mi Calm Calm - N/A   Scattered Clouds
11:50 PM 26.6 °F - 26.6 °F 100% 29.94 in 0.2 mi Calm Calm - N/A Fog Light Freezing Fog